TimeMST,TemperatureF,Dew PointF,Humidity,Sea Level PressureIn,VisibilityMPH,Wind Direction,Wind SpeedMPH,Gust SpeedMPH,PrecipitationIn,Events,Conditions,WindDirDegrees,DateUTC
12:53 AM,30.9,1.0,28,30.20,10.0,West,8.1,-,N/A,,Clear,260,2012-12-04 07:53:00
1:53 AM,35.1,-0.0,23,30.19,10.0,North,-9999.0,-,N/A,,Clear,0,2012-12-04 08:53:00
2:53 AM,33.1,3.9,29,30.22,10.0,Variable,3.5,-,N/A,,Clear,0,2012-12-04 09:53:00
3:53 AM,28.9,1.9,32,30.26,10.0,Calm,Calm,-,N/A,,Clear,0,2012-12-04 10:53:00
4:53 AM,34.0,1.9,26,30.25,10.0,West,6.9,-,N/A,,Clear,270,2012-12-04 11:53:00
5:53 AM,30.9,1.0,28,30.30,10.0,Calm,Calm,-,N/A,,Clear,0,2012-12-04 12:53:00
6:53 AM,28.9,1.9,32,30.34,10.0,WSW,10.4,-,N/A,,Clear,240,2012-12-04 13:53:00
7:53 AM,32.0,5.0,32,30.32,10.0,SW,11.5,-,N/A,,Clear,220,2012-12-04 14:53:00
8:53 AM,39.0,6.1,26,30.31,10.0,SSW,12.7,-,N/A,,Clear,200,2012-12-04 15:53:00
9:53 AM,42.1,7.0,24,30.29,10.0,SSW,15.0,-,N/A,,Clear,200,2012-12-04 16:53:00
10:53 AM,43.0,10.0,26,30.26,10.0,SSW,20.7,-,N/A,,Clear,210,2012-12-04 17:53:00
11:53 AM,42.1,10.0,27,30.25,10.0,SSW,13.8,-,N/A,,Overcast,200,2012-12-04 18:53:00
12:53 PM,44.1,9.0,24,30.20,10.0,SSW,19.6,23.0,N/A,,Mostly Cloudy,210,2012-12-04 19:53:00
1:53 PM,46.9,7.0,20,30.15,10.0,SW,13.8,-,N/A,,Partly Cloudy,230,2012-12-04 20:53:00
2:53 PM,53.1,3.9,14,30.11,10.0,West,20.7,32.2,N/A,,Scattered Clouds,260,2012-12-04 21:53:00
3:53 PM,46.0,6.1,20,30.17,10.0,WSW,6.9,-,N/A,,Clear,250,2012-12-04 22:53:00
4:53 PM,41.0,8.1,26,30.15,10.0,SW,12.7,-,N/A,,Clear,220,2012-12-04 23:53:00
5:53 PM,48.0,12.0,24,30.11,10.0,West,32.2,41.4,N/A,,Clear,270,2012-12-05 00:53:00
6:53 PM,46.9,12.9,25,30.16,10.0,West,18.4,24.2,N/A,,Clear,270,2012-12-05 01:53:00
7:53 PM,46.9,12.9,25,30.13,10.0,West,25.3,33.4,N/A,,Clear,260,2012-12-05 02:53:00
8:53 PM,46.9,17.1,30,30.10,10.0,West,29.9,35.7,N/A,,Clear,280,2012-12-05 03:53:00
9:53 PM,46.9,17.1,30,30.09,10.0,West,20.7,31.1,N/A,,Clear,260,2012-12-05 04:53:00
10:53 PM,45.0,17.1,33,30.09,10.0,West,16.1,-,N/A,,Clear,270,2012-12-05 05:53:00
11:53 PM,43.0,14.0,31,30.11,10.0,SW,9.2,-,N/A,,Clear,230,2012-12-05 06:53:00